Location: Unspecified
(64.9000°N, 0.0000°E)
Time: 16:23:27
(UTC+00:00)

Altair - Pass Details

Date: 24 June 2019
Orbit: 1501 x 1683 km, 47.2° (Epoch: 18 July)

Event Time Altitude Azimuth Distance (km) Brightness Sun altitude
Rises 19:43:09 0° 211° (SSW) 4,722 10.1 11.2°
Reaches altitude 10° 19:47:06 10° 197° (SSW) 3,770 9.4 10.8°
Maximum altitude 19:53:40 21° 153° (SSE) 3,022 8.6 10.3°
Drops below altitude 10° 20:00:24 10° 109° (ESE) 3,876 9.1 9.7°
Sets 20:04:32 0° 95° (E) 4,891 9.6 9.3°
